sat.trackr.live / text

‹ back to catalog

TELSTAR 18V

NORAD 43611 · 2018-069A

PAYLOAD ACTIVE UNKNOWN

§ Identity

Operator
Country
CA
Launch date
2018-09-10
Launch site
AFETR
Launch vehicle
Mass (kg)
RCS (m²)

Purposes: comms

External: N2YO · Heavens-Above · Gunter

§ Orbital elements

Epoch: 2026-05-25T04:23:51.001152Z

Period
1,436.00 min
Inclination
0.0147°
Eccentricity
0.0001797
Mean motion
1.00278381 rev/d
Perigee alt
35,777.2 km
Apogee alt
35,792.3 km
Semi-major
42,162.9 km
B*
0.0000e+0
RAAN
284.6209°
Arg perigee
136.4261°
Mean anomaly
25.6816°
Rev number
2,841

§ Raw data

TELSTAR 18V1 43611U 18069A   26145.18322918 -.00000295  00000+0  00000+0 0  99962 43611   0.0147 284.6209 0001797 136.4261  25.6816  1.00278381 28410

JSON: /api/v1/satellites/43611 · /tle

For live sub-satellite position, see the globe view (requires WebGL).

§ Visibility from observer

Set your observer location to see the next 7 days of passes ≥ 10°. The values pass through the URL so the page stays shareable.

No JS? Fill the form by hand. The geolocation button needs JavaScript.